User: anonymous   Login
Location: Unspecified
(0.0000°N, 0.0000°E)
Time: 07:31:47
(UTC+00:00)
Language:

Tiangong 2 - Orbit

View from above orbital plane
View from above orbital plane
View from above satellite
View from above satellite

Ground track
Ground track

The orbit data is extracted from the following two-line orbital elements,

1 41765U 16057A   17290.58853838 +.00007449 +00000-0 +96959-4 0  9995
2 41765 042.7836 347.7474 0002948 349.4097 161.7272 15.59211852062081
Epoch (UTC): 17 October 2017 14:07:29
Eccentricity: 0.0002948
inclination: 42.7836°
perigee height: 388 km
apogee height: 392 km
right ascension of ascending node: 347.7474°
argument of perigee: 349.4097°
revolutions per day: 15.59211852
mean anomaly at epoch: 161.7272°
orbit number at epoch: 6208

The dashed part of the orbit path shows where the satellite is in the earth's shadow,  

DLR